Vorticity
nan nan nan nan nan nan nan nan nan nan nan nan nan nan nan nan nan nan nan nan nan nan nan nan nan nan nan nan nan nan nan nan nan nan nan nan nan nan nan nan nan nan nan nan nan nan nan nan nan nan nan nan nan nan nan nan nan nan nan nan nan nan nan nan nan nan nan nan nan
nan 9 10 10 9 9 9 9 9 9 9 9 9 9 9 8 8 8 8 7 7 8 8 8 8 8 7 7 8 8 8 8 8 9 9 9 8 8 8 8 8 7 7 8 8 8 8 8 8 8 8 9 9 8 8 8 9 9 9 9 10 12 13 14 14 14 15 15 nan
nan 9 9 9 9 9 8 9 9 8 8 9 10 10 9 8 8 8 8 9 8 8 7 7 7 7 8 9 9 10 10 9 9 9 8 8 8 8 8 8 8 8 8 8 8 7 6 8 8 8 8 7 6 6 8 9 9 10 12 13 12 10 10 13 14 15 16 16 nan
nan 9 9 9 8 8 8 8 8 9 9 10 10 10 9 8 8 9 9 9 8 8 7 7 7 8 8 9 9 9 9 9 8 8 8 8 8 8 8 8 7 8 8 8 7 6 7 8 9 9 9 7 8 9 9 7 8 10 12 13 11 10 10 11 13 14 13 12 nan
nan 9 9 9 8 8 8 8 8 8 9 9 9 8 8 8 8 7 7 7 7 7 7 8 8 8 8 9 9 9 9 9 9 10 9 8 9 9 9 8 7 8 8 8 7 7 8 9 9 9 9 10 11 10 7 6 7 8 8 9 9 10 11 11 12 11 10 10 nan
nan 9 9 9 9 8 8 9 9 9 9 8 7 6 6 7 6 6 5 6 7 8 9 10 9 9 9 9 9 10 10 10 11 10 9 9 9 8 8 8 8 7 8 7 8 9 9 10 9 8 8 9 9 8 8 9 8 7 7 6 8 9 10 8 10 10 9 7 nan
nan 8 9 9 9 8 9 9 9 9 8 7 6 6 6 6 5 6 6 7 8 10 11 12 11 11 10 9 10 9 9 9 9 9 9 9 8 8 8 8 8 8 7 7 9 9 10 10 8 8 8 9 10 9 9 9 8 7 6 5 7 8 8 9 10 9 8 8 nan
nan 9 9 9 9 9 9 9 8 8 7 6 7 7 7 7 6 7 8 9 10 11 11 11 11 10 10 9 9 9 8 8 8 8 8 8 7 7 8 8 8 8 9 9 9 9 9 10 9 9 9 10 9 8 8 8 6 6 6 7 7 8 8 10 9 7 7 9 nan
nan 9 9 9 9 9 9 10 9 8 7 7 8 8 9 8 8 9 10 11 11 11 10 9 9 9 9 8 8 8 8 8 8 8 8 7 7 7 8 8 8 8 9 10 9 9 9 10 8 7 7 7 5 5 6 7 7 7 8 11 9 6 5 7 5 5 6 8 nan
nan 8 9 9 9 9 10 10 10 9 9 9 9 9 9 9 10 11 11 11 10 9 9 8 8 7 6 6 7 8 8 8 8 8 7 7 7 8 8 8 8 8 8 8 9 10 11 9 6 5 5 5 5 5 6 8 9 9 9 10 6 4 4 5 5 6 8 8 nan
nan 9 9 9 10 10 10 10 10 10 10 9 9 10 10 11 11 11 10 9 7 7 8 8 6 6 6 7 8 8 8 8 7 7 8 8 8 9 9 8 7 8 8 7 9 11 11 8 6 5 5 4 7 9 10 9 9 9 8 4 4 5 7 6 7 9 10 9 nan
nan 9 10 10 10 10 10 10 10 10 10 9 9 10 10 10 10 9 8 6 6 7 8 8 7 7 7 8 8 8 9 8 7 7 8 8 8 9 9 8 8 8 9 9 10 10 9 7 6 6 7 6 8 9 9 8 8 8 7 4 6 7 7 8 9 9 8 8 nan
nan 9 10 10 10 10 10 10 10 9 9 9 9 9 9 9 9 8 7 5 6 7 8 8 8 8 8 7 7 8 8 8 8 8 8 8 8 9 9 9 9 9 10 11 10 9 7 7 7 8 8 9 7 6 5 7 7 7 7 7 7 7 7 9 9 8 7 7 nan
nan 9 10 10 10 10 9 9 9 9 8 8 9 9 8 9 9 8 7 6 7 8 8 8 9 8 8 8 7 7 7 8 8 8 8 8 8 9 9 9 9 10 10 11 10 8 7 7 9 9 9 9 7 6 6 7 7 8 8 8 8 8 9 10 9 9 8 8 nan
nan 9 10 10 10 9 8 9 9 9 8 8 9 8 8 8 9 8 7 7 9 9 8 7 7 8 9 9 8 8 8 9 8 8 8 8 9 9 8 8 9 9 10 9 9 9 9 9 9 9 9 9 8 8 8 9 9 10 10 10 11 11 11 11 10 9 9 9 nan
nan 9 9 9 9 8 8 9 9 8 8 8 8 8 8 8 9 8 8 8 9 9 7 6 7 8 9 10 10 10 10 9 9 9 9 9 9 8 8 8 9 9 10 10 9 8 9 9 9 9 9 9 10 10 10 10 11 11 11 11 12 12 12 10 10 9 9 9 nan
nan 9 9 9 8 8 8 8 8 7 7 7 8 8 8 9 8 8 8 8 8 7 6 7 8 8 8 9 10 11 10 8 9 8 9 9 8 9 9 9 9 10 11 11 9 8 8 8 8 9 9 10 11 11 11 12 12 12 11 11 11 11 11 10 10 9 9 9 nan
nan 9 9 8 8 8 8 8 7 7 7 8 9 9 9 8 7 7 8 9 8 6 6 8 9 8 7 8 8 9 8 8 8 8 8 9 9 9 9 9 10 10 11 11 10 9 9 9 9 9 10 11 11 12 11 11 11 11 10 10 11 11 11 11 10 10 10 10 nan
nan 8 8 8 8 8 8 8 8 8 9 10 9 8 7 7 7 6 6 7 7 7 8 9 8 8 8 8 8 8 8 10 9 9 9 9 9 9 9 9 10 10 12 12 11 10 10 10 10 10 10 11 11 10 10 10 9 10 10 11 11 11 10 10 11 10 10 10 nan
nan 8 8 8 8 8 9 9 9 9 9 9 8 7 6 7 7 6 6 6 7 8 9 9 8 8 8 8 8 9 9 10 9 9 9 9 9 9 9 10 10 11 12 12 11 11 10 10 11 11 12 11 10 9 9 10 10 10 10 12 12 11 10 10 11 10 10 10 nan
nan 8 9 9 8 8 9 9 9 9 8 7 7 7 7 7 7 7 8 9 9 9 9 9 8 8 8 8 9 9 10 9 9 9 9 9 10 9 10 10 10 11 12 11 11 10 10 11 11 12 12 11 10 10 10 10 10 11 11 10 10 10 11 11 11 11 11 11 nan
nan 9 9 8 8 8 8 8 8 8 8 7 7 7 7 8 8 8 9 11 10 9 9 10 10 9 9 9 10 10 10 8 8 9 9 9 9 9 10 10 10 10 11 11 11 11 12 12 12 12 12 12 12 12 11 10 11 11 11 9 9 11 12 13 13 13 13 13 nan
nan 10 9 9 9 9 9 9 8 7 7 6 7 7 7 8 9 9 10 9 8 8 9 10 11 10 10 10 10 9 9 7 7 8 9 8 8 8 9 10 10 11 12 13 12 10 9 11 13 13 13 13 13 13 13 12 11 11 11 11 13 14 15 15 15 15 15 14 nan
nan 9 9 10 9 9 9 8 6 6 5 6 7 8 8 8 9 10 9 8 8 8 9 9 9 10 11 11 10 9 8 7 7 8 8 7 8 8 9 10 11 13 14 12 2 -3 -4 0 6 10 13 13 13 12 11 9 8 9 10 12 14 14 15 15 15 14 14 13 nan
nan 8 8 8 8 8 7 6 5 5 6 8 9 9 9 9 10 10 9 9 9 9 9 9 9 9 9 10 10 9 9 8 7 7 7 8 9 9 10 11 12 14 13 3 -8 -11 -10 -6 -1 4 8 12 10 9 7 8 8 9 11 12 13 13 12 12 12 12 12 14 nan
nan 8 8 7 6 5 5 5 7 8 9 9 9 9 9 10 10 9 9 9 10 10 10 11 10 8 8 10 8 8 8 8 8 8 8 9 9 10 11 11 12 13 9 -4 -8 -5 -3 -2 -0 4 9 12 9 9 9 11 13 13 14 14 13 12 11 10 10 11 11 12 nan
nan 8 7 7 6 6 6 7 8 8 9 8 8 9 10 10 9 8 9 10 10 11 11 12 10 9 11 11 8 8 8 8 9 9 10 10 9 10 11 11 12 10 1 -9 -8 -3 1 4 6 9 14 12 10 11 11 12 14 15 15 14 13 11 10 9 9 9 10 9 nan
nan 7 7 6 7 8 8 9 8 8 8 9 9 10 10 10 9 9 9 10 10 11 11 10 10 11 12 8 7 8 8 9 10 11 11 10 10 10 11 10 9 3 -6 -11 -6 -0 4 7 10 11 13 12 16 14 13 12 13 13 13 13 11 10 10 10 10 9 8 8 nan
nan 6 7 7 7 8 9 9 8 9 10 11 10 10 9 10 10 10 9 9 9 10 9 8 9 9 6 4 6 9 10 11 11 11 10 9 10 10 10 8 7 2 -4 -4 1 5 7 8 9 10 10 15 19 16 14 13 12 11 11 11 9 8 9 9 8 7 7 9 nan
nan 7 7 8 8 8 9 9 9 10 10 11 11 10 10 9 9 10 10 10 10 8 6 8 6 4 3 5 9 10 10 11 11 10 9 9 9 9 9 9 8 6 1 1 4 5 6 7 8 9 9 15 20 19 15 11 9 10 10 9 7 7 9 9 8 8 9 9 nan
nan 8 8 8 8 8 9 10 10 10 10 10 10 10 10 10 11 11 12 10 8 7 8 8 5 4 6 10 10 9 9 9 9 9 9 9 9 10 10 10 9 6 1 -1 1 3 5 7 8 8 9 16 24 22 14 8 8 9 9 7 7 9 10 11 12 11 9 8 nan
nan 9 8 8 9 9 10 10 11 11 11 11 11 11 11 11 11 10 9 7 7 9 10 8 6 8 10 11 10 8 8 8 9 8 8 8 10 10 10 11 11 6 -2 -4 0 3 5 7 9 9 9 17 25 21 14 10 11 12 11 9 10 11 12 11 11 11 10 10 nan
nan 9 9 9 10 10 11 11 12 12 13 13 12 11 10 10 9 8 8 8 9 10 10 7 8 11 12 12 10 8 9 10 9 8 9 10 10 9 9 12 11 3 -5 -4 1 5 7 8 9 9 9 19 28 24 17 14 14 13 12 13 13 13 13 12 11 11 11 10 nan
nan 10 10 11 11 12 12 12 13 13 12 11 10 9 9 10 9 9 9 10 10 10 10 9 11 12 12 11 9 9 9 9 10 10 11 11 10 9 10 11 6 -3 -7 -2 4 6 8 9 9 10 12 25 32 26 18 14 14 12 12 12 12 12 12 13 12 11 10 10 nan
nan 11 12 12 12 12 12 12 11 10 9 8 8 9 10 10 9 10 9 9 9 9 9 9 10 11 10 9 10 9 8 8 10 10 10 10 9 9 9 9 3 -4 -4 2 6 7 8 9 9 11 18 32 33 24 17 16 15 14 13 12 11 11 11 11 11 11 11 11 nan
nan 13 13 12 11 11 10 10 9 8 7 7 9 10 11 10 11 11 9 10 10 9 9 9 9 9 8 9 8 8 8 9 10 9 9 8 8 9 9 8 4 1 2 5 7 8 8 9 10 14 24 35 29 20 16 17 16 14 12 11 11 11 10 11 11 11 12 12 nan
nan 13 11 10 9 9 9 8 7 7 7 9 12 12 12 12 12 11 10 11 11 10 9 9 8 8 8 7 6 6 7 8 9 8 8 8 9 9 8 8 7 6 6 6 6 7 8 10 12 18 27 31 22 16 15 15 14 12 10 11 12 12 12 13 14 14 14 12 nan
nan 10 8 7 7 8 8 8 7 8 9 11 12 11 11 11 11 10 10 10 10 9 9 9 8 7 6 5 5 6 7 8 8 8 8 9 9 8 7 8 10 9 6 4 5 8 10 11 13 18 25 24 18 16 15 14 11 9 10 12 13 13 12 13 14 15 16 13 nan
nan 8 7 7 8 8 8 8 8 10 11 12 10 9 10 11 10 9 9 10 10 9 8 7 6 6 5 5 7 8 8 8 9 9 10 10 7 5 5 10 12 10 6 4 6 9 11 12 13 15 22 24 20 17 15 12 10 10 11 12 12 12 12 12 13 14 17 16 nan
nan 8 8 8 8 8 8 8 10 11 11 10 9 10 11 11 9 9 10 10 9 8 7 6 5 5 5 7 9 9 9 9 10 10 10 9 7 6 11 16 15 12 8 8 9 11 12 12 11 13 22 25 19 16 14 12 10 10 11 11 10 10 11 12 14 16 18 17 nan
nan nan nan nan nan nan nan nan nan nan nan nan nan nan nan nan nan nan nan nan nan nan nan nan nan nan nan nan nan nan nan nan nan nan nan nan nan nan nan nan nan nan nan nan nan nan nan nan nan nan nan nan nan nan nan nan nan nan nan nan nan nan nan nan nan nan nan nan nan
CAPE
nan nan nan nan nan nan nan nan nan nan nan nan nan nan nan nan nan nan nan nan nan nan nan nan nan nan nan nan nan nan nan nan nan nan nan nan nan nan nan nan nan nan nan nan nan nan nan nan nan nan nan nan nan nan nan nan nan nan nan nan nan nan nan nan nan nan nan nan nan
nan nan nan nan nan nan nan nan nan nan nan nan nan nan nan nan nan nan nan nan nan nan nan nan nan nan nan nan nan nan nan nan nan nan nan nan nan nan nan nan nan nan nan nan nan nan nan nan nan nan nan nan nan nan nan nan nan nan nan nan nan nan nan nan nan nan nan nan nan
nan nan nan nan nan nan nan nan nan nan nan nan nan nan nan nan nan nan nan nan nan nan nan nan nan nan nan nan nan nan nan nan nan nan nan nan nan nan nan nan nan nan nan nan nan nan nan nan nan nan nan nan nan nan nan nan nan nan nan nan nan nan nan nan nan nan nan nan nan
nan nan nan nan nan nan nan nan nan nan nan nan nan nan nan nan nan nan nan nan nan nan nan nan nan nan nan nan nan nan nan nan nan nan nan nan nan nan nan nan nan nan nan nan nan nan nan nan nan nan nan nan nan nan nan nan nan nan nan nan nan nan nan nan nan nan nan nan nan
nan nan nan nan nan nan nan nan nan nan nan nan nan nan nan nan nan nan nan nan nan nan nan nan nan nan nan nan nan nan nan nan nan nan nan nan nan nan nan nan nan nan nan nan nan nan nan nan nan nan nan nan nan nan nan nan nan nan nan nan nan nan nan nan nan nan nan nan nan
nan nan nan nan nan nan nan nan nan nan nan nan nan nan nan nan nan nan nan nan nan nan nan nan nan nan nan nan nan nan nan nan nan nan nan nan nan nan nan nan nan nan nan nan nan nan nan nan nan nan nan nan nan nan nan nan nan nan nan nan nan nan nan nan nan nan nan nan nan
nan nan nan nan nan nan nan nan nan nan nan nan nan nan nan nan nan nan nan nan nan nan nan nan nan nan nan nan nan nan nan nan nan nan nan nan nan nan nan nan nan nan nan nan nan nan nan nan nan nan nan nan nan nan nan nan nan nan nan nan nan nan nan nan nan nan nan nan nan
nan nan nan nan nan nan nan nan nan nan nan nan nan nan nan nan nan nan nan nan nan nan nan nan nan nan nan nan nan nan nan nan nan nan nan nan nan nan nan nan nan nan nan nan nan nan nan nan nan nan nan nan nan nan nan nan nan nan nan nan nan nan nan nan nan nan nan nan nan
nan nan nan nan nan nan nan nan nan nan nan nan nan nan nan nan nan nan nan nan nan nan nan nan nan nan nan nan nan nan nan nan nan nan nan nan nan nan nan nan nan nan nan nan nan nan nan nan nan nan nan nan nan nan nan nan nan nan nan nan nan nan nan nan nan nan nan nan nan
nan nan nan nan nan nan nan nan nan nan nan nan nan nan nan nan nan nan nan nan nan nan nan nan nan nan nan nan nan nan nan nan nan nan nan nan nan nan nan nan nan nan nan nan nan nan nan nan nan nan nan nan nan nan nan nan nan nan nan nan nan nan nan nan nan nan nan nan nan
nan nan nan nan nan nan nan nan nan nan nan nan nan nan nan nan nan nan nan nan nan nan nan nan nan nan nan nan nan nan nan nan nan nan nan nan nan nan nan nan nan nan nan nan nan nan nan nan nan nan nan nan nan nan nan nan nan nan nan nan nan nan nan nan nan nan nan nan nan
nan nan nan nan nan nan nan nan nan nan nan nan nan nan nan nan nan nan nan nan nan nan nan nan nan nan nan nan nan nan nan nan nan nan nan nan nan nan nan nan nan nan nan nan nan nan nan nan nan nan nan nan nan nan nan nan nan nan nan nan nan nan nan nan nan nan nan nan nan
nan nan nan nan nan nan nan nan nan nan nan nan nan nan nan nan nan nan nan nan nan nan nan nan nan nan nan nan nan nan nan nan nan nan nan nan nan nan nan nan nan nan nan nan nan nan nan nan nan nan nan nan nan nan nan nan nan nan nan nan nan nan nan nan nan nan nan nan nan
nan nan nan nan nan nan nan nan nan nan nan nan nan nan nan nan nan nan nan nan nan nan nan nan nan nan nan nan nan nan nan nan nan nan nan nan nan nan nan nan nan nan nan nan nan nan nan nan nan nan nan nan nan nan nan nan nan nan nan nan nan nan nan nan nan nan nan nan nan
nan nan nan nan nan nan nan nan nan nan nan nan nan nan nan nan nan nan nan nan nan nan nan nan nan nan nan nan nan nan nan nan nan nan nan nan nan nan nan nan nan nan nan nan nan nan nan nan nan nan nan nan nan nan nan nan nan nan nan nan nan nan nan nan nan nan nan nan nan
nan nan nan nan nan nan nan nan nan nan nan nan nan nan nan nan nan nan nan nan nan nan nan nan nan nan nan nan nan nan nan nan nan nan nan nan nan nan nan nan nan nan nan nan nan nan nan nan nan nan nan nan nan nan nan nan nan nan nan nan nan nan nan nan nan nan nan nan nan
nan nan nan nan nan nan nan nan nan nan nan nan nan nan nan nan nan nan nan nan nan nan nan nan nan nan nan nan nan nan nan nan nan nan nan nan nan nan nan nan nan nan nan nan nan nan nan nan nan nan nan nan nan nan nan nan nan nan nan nan nan nan nan nan nan nan nan nan nan
nan nan nan nan nan nan nan nan nan nan nan nan nan nan nan nan nan nan nan nan nan nan nan nan nan nan nan nan nan nan nan nan nan nan nan nan nan nan nan nan nan nan nan nan nan nan nan nan nan nan nan nan nan nan nan nan nan nan nan nan nan nan nan nan nan nan nan nan nan
nan nan nan nan nan nan nan nan nan nan nan nan nan nan nan nan nan nan nan nan nan nan nan nan nan nan nan nan nan nan nan nan nan nan nan nan nan nan nan nan nan nan nan nan nan nan nan nan nan nan nan nan nan nan nan nan nan nan nan nan nan nan nan nan nan nan nan nan nan
nan nan nan nan nan nan nan nan nan nan nan nan nan nan nan nan nan nan nan nan nan nan nan nan nan nan nan nan nan nan nan nan nan nan nan nan nan nan nan nan nan nan nan nan nan nan nan nan nan nan nan nan nan nan nan nan nan nan nan nan nan nan nan nan nan nan nan nan nan
nan nan nan nan nan nan nan nan nan nan nan nan nan nan nan nan nan nan nan nan nan nan nan nan nan nan nan nan nan nan nan nan nan nan nan nan nan nan nan nan nan nan nan nan nan nan nan nan nan nan nan nan nan nan nan nan nan nan nan nan nan nan nan nan nan nan nan nan nan
nan nan nan nan nan nan nan nan nan nan nan nan nan nan nan nan nan nan nan nan nan nan nan nan nan nan nan nan nan nan nan nan nan nan nan nan nan nan nan nan nan nan nan nan nan nan nan nan nan nan nan nan nan nan nan nan nan nan nan nan nan nan nan nan nan nan nan nan nan
nan nan nan nan nan nan nan nan nan nan nan nan nan nan nan nan nan nan nan nan nan nan nan nan nan nan nan nan nan nan nan nan nan nan nan nan nan nan nan nan nan nan nan nan nan nan nan nan nan nan nan nan nan nan nan nan nan nan nan nan nan nan nan nan nan nan nan nan nan
nan nan nan nan nan nan nan nan nan nan nan nan nan nan nan nan nan nan nan nan nan nan nan nan nan nan nan nan nan nan nan nan nan nan nan nan nan nan nan nan nan nan nan nan nan nan nan nan nan nan nan nan nan nan nan nan nan nan nan nan nan nan nan nan nan nan nan nan nan
nan nan nan nan nan nan nan nan nan nan nan nan nan nan nan nan nan nan nan nan nan nan nan nan nan nan nan nan nan nan nan nan nan nan nan nan nan nan nan nan nan nan nan nan nan nan 14 18 nan nan nan nan nan nan nan nan nan nan nan nan nan nan nan nan nan nan nan nan nan
nan nan nan nan nan nan nan nan nan nan nan nan nan nan nan nan nan nan nan nan nan nan nan nan nan nan nan nan nan nan nan nan nan nan nan nan nan nan nan nan nan nan nan nan 0 0 17 36 41 41 3 nan nan nan nan nan nan nan nan nan nan nan nan nan nan nan nan nan nan
nan nan nan nan nan nan nan nan nan nan nan nan nan nan nan nan nan nan nan nan nan nan nan nan nan nan nan nan nan nan nan nan nan nan nan nan nan nan nan nan nan nan nan nan 9 9 30 42 49 49 33 nan nan nan nan nan nan nan nan nan nan nan nan nan nan nan nan nan nan
nan nan nan nan nan nan nan nan nan nan nan nan nan nan nan nan nan nan nan nan nan nan nan nan nan nan nan nan nan nan nan nan nan nan nan nan nan nan nan nan nan nan nan nan 23 23 37 46 50 50 49 23 nan nan nan nan nan nan nan nan nan nan nan nan nan nan nan nan nan
nan nan nan nan nan nan nan nan nan nan nan nan nan nan nan nan nan nan nan nan nan nan nan nan nan nan nan nan nan nan nan nan nan nan nan nan nan nan nan nan nan nan nan 8 28 28 39 47 51 51 54 45 13 5 5 2 nan nan nan nan nan nan nan nan nan nan nan nan nan
nan nan nan nan nan nan nan nan nan nan nan nan nan nan nan nan nan nan nan nan nan nan nan nan nan nan nan nan nan nan nan nan nan nan nan nan nan nan nan nan nan nan nan 5 29 29 39 47 52 52 54 54 25 6 6 0 nan nan nan nan nan nan nan nan nan nan nan nan 0
nan nan nan nan nan nan nan nan nan nan nan nan nan nan nan nan nan nan nan nan nan nan nan nan nan nan nan nan nan nan nan nan nan nan nan nan nan nan nan nan nan nan nan 6 31 31 42 48 53 53 55 56 29 2 2 nan 0 0 0 nan nan nan nan nan nan nan nan nan nan
nan nan nan nan nan nan nan nan nan nan nan nan nan nan nan nan nan nan nan nan nan nan nan nan nan nan nan nan nan nan nan nan nan nan nan nan nan nan nan nan nan nan nan 10 34 34 44 48 52 52 53 56 28 nan nan 0 0 nan nan nan nan nan nan nan nan nan 0 nan nan
nan nan nan nan nan nan nan nan nan nan nan nan nan nan nan nan nan nan nan nan nan nan nan nan nan nan nan nan nan nan nan nan nan nan nan nan nan nan nan nan nan nan nan 18 34 34 43 49 53 53 55 57 23 2 2 0 0 0 0 nan nan nan nan nan nan nan nan nan nan
nan nan nan nan nan nan nan nan nan nan nan nan nan nan nan nan nan nan nan nan nan nan nan nan nan nan nan nan nan nan nan nan nan nan nan nan nan nan nan nan nan nan nan 21 37 37 44 48 54 54 55 59 20 1 1 nan nan nan nan nan nan 0 0 nan nan nan nan nan nan
nan nan nan nan nan nan nan nan nan nan nan nan nan nan nan nan nan nan nan nan nan nan nan nan nan nan nan nan nan nan nan nan nan nan nan nan nan nan nan nan nan nan nan 22 35 35 44 50 55 55 57 50 11 0 0 nan nan nan nan nan 0 nan nan nan nan nan nan nan nan
nan nan nan nan nan nan nan nan nan nan nan nan nan nan nan nan nan nan nan nan nan nan nan nan nan nan nan nan nan nan nan nan nan nan nan nan nan nan nan nan nan nan nan 18 33 33 44 51 55 55 59 35 5 1 1 0 0 nan nan nan nan nan nan nan nan nan nan nan nan
nan nan nan nan nan nan nan nan nan nan nan nan nan nan nan nan nan nan nan nan nan nan nan nan nan nan nan nan nan nan nan nan nan nan nan nan nan nan nan nan nan nan nan 12 32 32 45 52 58 58 55 20 3 3 3 1 0 nan nan nan nan nan nan nan nan nan nan nan nan
nan nan nan nan nan nan nan nan nan nan nan nan nan nan nan nan nan nan nan nan nan nan nan nan nan nan nan nan nan nan nan nan nan nan nan nan nan nan nan nan nan nan nan 4 30 30 43 52 56 56 50 12 4 4 4 0 0 nan nan nan nan nan nan nan nan nan nan nan nan
nan nan nan nan nan nan nan nan nan nan nan nan nan nan nan nan nan nan nan nan nan nan nan nan nan nan nan nan nan nan nan nan nan nan nan nan nan nan nan nan nan nan nan 2 26 26 40 50 57 57 57 22 5 2 2 0 nan nan nan nan nan nan nan nan nan nan nan nan 27
nan nan nan nan nan nan nan nan nan nan nan nan nan nan nan nan nan nan nan nan nan nan nan nan nan nan nan nan nan nan nan nan nan nan nan nan nan nan nan nan nan nan nan 1 19 19 34 49 57 57 61 26 3 nan nan nan nan nan nan nan nan nan nan nan nan nan nan nan 80
nan nan nan nan nan nan nan nan nan nan nan nan nan nan nan nan nan nan nan nan nan nan nan nan nan nan nan nan nan nan nan nan nan nan nan nan nan nan nan nan nan nan nan nan 12 12 32 49 59 59 63 16 nan nan nan nan 0 0 0 nan nan nan nan nan nan nan nan nan nan